Location: Karcze
(52.0945°N, 22.4786°E)
Time: 12:30:12
(UTC+00:00)

Okean 1 - Pass Details

Date: 14 July 2020
Orbit: 538 x 556 km, 82.5° (Epoch: 07 August)

Event Time Altitude Azimuth Distance (km) Brightness Sun altitude
Rises 00:16:06 0° 341° (NNW) 2,709 7.6 -13.1°
Reaches altitude 10° 00:18:25 10° 331° (NNW) 1,813 6.5 -13.0°
Maximum altitude 00:21:56 31° 269° (W) 963 4.3 -12.7°
Enters shadow 00:24:00 19° 220° (SW) 1,316 4.6 -12.6°
